Location: Pasarilla del Rebollar
(40.6790°N, 5.0062°W)
Time: 12:04:24
(UTC+00:00)

Cosmos 1980 Rocket - Pass Details

Date: 22 April 2026
Orbit: 826 x 850 km, 71.0° (Epoch: 16 May)

Event Time Altitude Azimuth Distance (km) Brightness Sun altitude
Rises 02:02:28 0° 326° (NW) 3,422 5.7 -32.0°
Reaches altitude 10° 02:05:11 10° 315° (NW) 2,482 4.8 -31.7°
Enters shadow 02:06:11 15° 309° (NW) 2,175 4.4 -31.6°
